Location: Ferchesar
(52.6477°N, 12.4298°E)
Time: 17:55:41
(UTC+01:00)

Explorer 7 - Visible Passes

Search period start: 26 February 2021 00:00
Search period end: 08 March 2021 00:00
Orbit: 484 x 677 km, 50.3° (Epoch: 25 February)

Date Brightness Start Highest point End Pass type
(mag) Time Alt. Az. Time Alt. Az. Time Alt. Az.
26 Feb 7.0 18:42:32 10° WSW 18:46:42 63° S 18:49:49 15° E visible
26 Feb 7.8 20:23:03 10° W 20:26:07 38° SW 20:26:07 38° SW visible
27 Feb 7.0 18:47:02 10° W 18:51:11 63° S 18:54:15 16° ESE visible
27 Feb 8.1 20:27:37 10° W 20:30:33 32° SW 20:30:33 32° SW visible
28 Feb 7.1 18:51:33 10° W 18:55:41 59° S 18:58:43 16° ESE visible
28 Feb 8.4 20:32:15 10° W 20:35:01 26° SW 20:35:01 26° SW visible
01 Mar 7.3 18:56:04 10° W 19:00:09 52° SSW 19:03:12 15° ESE visible
01 Mar 8.8 20:36:59 10° W 20:39:30 20° SW 20:39:30 20° SW visible
02 Mar 7.6 19:00:36 10° W 19:04:34 43° SSW 19:07:45 14° SE visible
02 Mar 9.1 20:41:59 10° WSW 20:44:03 15° SW 20:44:03 15° SW visible
03 Mar 8.1 19:05:10 10° W 19:08:58 34° SSW 19:12:21 11° SE visible
03 Mar 9.5 20:48:12 10° SW 20:48:29 10° SW 20:48:39 10° SW visible
04 Mar 8.5 19:09:49 10° W 19:13:19 26° SSW 19:16:39 10° SSE visible
05 Mar 9.0 19:14:35 10° W 19:17:37 20° SW 19:20:32 10° SSE visible
06 Mar 9.4 19:19:38 10° WSW 19:21:51 14° SW 19:24:00 10° S visible
